Location: Unspecified
(0.0000°N, 0.0000°E)
Time: 11:49:10
(UTC+02:00)

Ariane H10-3 - Visible Passes

Search period start: 19 September 2014 00:00
Search period end: 29 September 2014 00:00
Orbit: 233 x 22482 km, 7.2° (Epoch: 17 September)

Date Brightness Start Highest point End Pass type
(mag) Time Alt. Az. Time Alt. Az. Time Alt. Az.
19 Sep 6.8 23:21:57 10° W 00:03:47 43° WNW 00:03:47 43° WNW visible
20 Sep 4.4 07:00:43 19° W 07:03:36 66° S 07:22:27 10° E visible
21 Sep 6.6 16:28:35 10° W 21:33:08 75° N 21:44:25 35° ENE visible
22 Sep 6.7 22:53:45 10° W 23:50:00 49° WNW 23:50:00 49° WNW visible
23 Sep 4.0 06:46:43 27° WSW 06:48:50 62° S 07:04:47 10° E visible
24 Sep 6.7 16:09:27 10° W 21:15:19 76° N 21:29:03 30° ENE visible
25 Sep 6.5 22:02:42 10° W 23:33:44 56° NW 23:33:44 56° NW visible
26 Sep 3.6 06:30:14 41° SW 06:31:27 59° S 06:44:29 10° E visible
27 Sep 6.9 15:47:38 10° W 20:54:09 77° N 21:11:13 23° ENE visible
28 Sep 6.3 19:28:43 10° W 23:15:00 64° NNW 23:15:00 64° NNW visible
